Temperature
25 24 24 23 22 21 20 20 20 20 19 19 19 19 19 19 19 19 19 18 18 18 18 18 18 18 18 18 18 18 18 18 18 18 18 18 18 18 18 18 17 17 17
26 25 24 23 22 21 21 20 20 20 20 19 19 19 19 19 19 19 19 18 18 18 18 18 18 18 18 18 18 18 18 18 18 18 18 18 18 18 18 18 17 17 17
26 25 24 24 23 22 21 21 20 20 20 20 19 19 19 19 19 19 19 19 18 18 18 18 18 18 18 18 18 18 18 18 18 18 18 18 18 17 17 17 17 17 17
27 26 25 24 23 22 22 21 21 20 20 20 20 20 19 19 19 19 19 19 18 18 18 18 18 18 18 18 18 18 18 18 18 18 18 18 18 17 17 17 17 17 17
28 27 25 24 24 23 22 21 21 21 20 20 20 20 20 19 19 19 19 19 19 18 18 18 18 18 18 18 18 18 18 18 18 17 18 18 18 17 17 16 16 16 16
29 27 26 25 24 23 23 22 21 21 21 20 20 20 20 20 19 19 19 19 19 19 19 18 18 18 18 18 18 18 18 18 18 17 17 17 17 17 17 17 16 16 16
29 28 26 25 24 24 23 22 21 21 21 21 20 20 20 20 20 19 19 19 19 19 19 19 18 18 18 18 18 18 17 17 17 17 17 17 17 17 17 17 16 16 16
29 28 27 26 25 24 23 23 22 22 21 21 21 20 20 20 20 20 19 19 19 19 19 19 18 18 18 18 18 17 17 17 17 17 17 17 17 17 17 17 16 16 16
29 28 27 26 25 24 24 23 22 22 22 21 21 21 21 20 20 20 20 19 19 19 19 19 18 18 18 18 18 18 17 17 17 17 17 17 17 17 17 17 17 16 15
30 28 28 27 26 25 24 23 23 22 22 22 21 21 21 21 20 20 20 19 19 19 19 19 18 18 18 18 18 18 17 17 17 17 17 17 17 17 17 16 16 16 16
29 28 28 27 26 25 24 24 23 22 22 22 21 21 21 21 20 20 20 19 19 19 19 19 18 18 18 18 18 18 18 17 17 17 17 17 16 16 16 16 16 16 16
30 29 28 27 26 25 25 24 23 22 22 22 21 21 21 20 20 20 20 19 19 19 19 19 19 18 18 18 18 18 17 17 17 17 16 16 16 16 16 16 16 16 16
29 28 27 26 26 25 25 24 23 23 22 22 21 21 21 20 20 20 19 19 19 19 19 19 19 18 18 18 18 18 17 17 17 17 16 16 16 16 16 16 16 15 15
29 28 27 26 25 25 24 24 23 23 22 22 22 21 21 21 20 20 20 19 19 19 19 19 19 18 18 18 18 18 17 17 17 17 16 16 16 16 16 16 15 15 15
28 27 26 26 25 25 24 24 23 23 22 22 21 21 21 21 20 20 19 19 19 19 19 19 19 18 18 18 18 17 17 17 16 16 16 16 16 16 16 15 15 15 15
28 27 26 25 25 24 24 23 23 23 22 22 21 21 21 20 20 20 19 19 19 19 19 19 19 18 18 18 17 17 17 17 16 16 16 16 16 16 16 16 15 15 15
28 27 26 25 24 24 24 23 23 22 22 21 21 21 21 20 20 19 19 19 19 19 18 18 18 18 18 18 18 17 17 17 16 16 16 16 16 16 16 16 15 15 15
27 26 26 25 24 24 23 23 22 22 22 21 21 21 20 20 19 19 19 19 19 18 18 18 18 18 18 18 18 17 17 16 16 16 16 16 16 16 15 15 15 15 15
26 25 25 25 24 23 23 22 22 22 21 21 21 20 20 20 19 19 19 19 18 18 18 18 18 18 18 18 17 17 16 16 16 16 16 16 15 15 15 15 15 15 15
25 25 24 24 23 23 22 22 21 21 21 21 20 20 20 20 19 19 19 19 18 18 18 17 17 17 17 17 17 17 16 16 16 16 16 15 15 15 15 15 14 14 14
25 24 24 23 23 23 22 22 21 21 21 20 20 20 20 19 19 19 19 19 18 18 18 17 17 17 17 17 17 17 16 16 15 15 15 15 15 15 15 14 14 14 14
24 24 23 23 22 22 22 21 21 21 20 20 19 19 19 19 19 19 18 18 18 18 17 17 17 17 17 17 17 17 16 16 15 15 15 15 15 15 14 14 14 14 14
23 23 23 22 22 21 21 21 20 20 20 19 19 19 19 18 18 18 18 18 18 17 17 17 17 17 17 17 17 17 16 16 15 15 15 15 15 15 14 14 14 14 13
22 22 22 21 21 20 20 20 20 20 19 19 19 18 18 18 18 18 18 17 17 17 17 17 17 17 17 17 17 16 16 16 15 15 15 15 14 14 14 14 14 13 13
22 21 21 21 20 20 19 19 19 19 19 19 18 18 18 18 18 18 18 17 17 17 17 17 17 17 16 16 16 16 15 15 15 15 14 14 14 14 13 13 13 13 13
21 21 20 20 20 19 19 19 19 19 19 18 18 18 17 17 17 17 17 17 17 17 17 17 17 17 16 16 16 15 15 15 14 14 14 13 13 13 13 13 13 13 13
Wind_Speed
13 13 12 11 10 9 8 7 5 5 3 2 2 2 2 2 2 2 4 3 1 1 1 1 1 1 1 2 2 2 2 1 1 1 1 0 1 2 2 1 2 2 3
14 13 12 11 11 10 9 7 6 6 5 3 2 2 2 2 2 2 4 3 2 0 0 1 1 1 1 1 2 1 2 2 1 1 0 0 0 1 1 1 2 2 2
16 15 14 12 12 11 10 8 7 6 5 4 3 2 2 1 2 3 3 2 2 1 1 2 1 2 1 1 1 1 2 2 2 1 0 0 0 1 1 1 2 2 1
16 16 15 13 12 12 11 8 8 7 5 4 3 3 3 2 3 2 3 3 2 2 1 1 0 1 1 1 2 1 2 2 2 1 1 1 1 1 0 1 1 1 1
16 16 16 14 13 13 12 10 9 7 6 5 4 3 2 2 2 2 3 3 3 2 2 2 1 1 1 1 2 1 1 2 2 2 2 1 1 2 2 1 0 1 1
16 15 16 14 12 12 11 12 10 8 7 6 5 4 3 2 1 1 2 2 3 2 2 2 1 1 0 1 1 1 1 1 2 3 2 2 1 1 1 1 1 0 1
14 15 15 15 13 12 11 11 11 9 8 7 6 5 4 3 2 2 2 2 2 3 2 1 2 1 1 1 0 1 1 1 2 3 3 3 2 1 1 2 1 0 0
13 15 15 15 15 14 12 12 12 10 9 8 6 5 5 4 3 3 2 2 1 2 3 2 2 1 1 1 0 1 1 1 2 2 2 3 2 1 0 1 1 1 1
14 14 14 15 15 14 13 12 12 10 9 8 7 6 5 4 3 3 3 2 2 2 3 2 2 1 1 1 1 1 1 1 2 2 2 2 2 1 1 1 1 1 1
13 12 13 13 12 13 12 12 12 11 9 9 7 8 7 5 4 3 3 2 1 1 2 2 2 2 2 2 1 2 1 1 1 2 1 2 2 1 1 1 1 1 1
12 12 11 11 12 12 13 11 12 11 10 9 8 6 7 7 6 4 4 3 3 2 3 3 2 2 2 2 2 2 2 2 2 2 1 1 2 1 2 1 0 1 1
11 11 11 11 11 12 12 11 11 11 10 9 8 7 6 6 6 5 4 4 4 4 4 4 3 3 3 2 2 3 2 2 2 2 1 2 2 1 1 1 0 0 1
9 10 9 9 8 9 9 10 10 11 11 10 9 8 7 7 6 6 5 4 4 3 3 3 3 3 3 3 3 3 2 2 2 2 2 2 2 1 1 1 1 1 0
8 9 9 8 7 7 7 7 8 9 9 9 9 8 8 7 7 5 5 5 4 4 4 3 3 3 3 2 2 2 3 3 2 1 2 2 2 1 1 2 1 1 1
8 8 8 7 7 7 7 6 6 7 7 8 8 7 7 6 6 6 5 5 5 5 4 3 4 4 3 3 3 3 4 3 3 2 2 2 1 1 1 1 1 1 1
6 7 7 7 7 7 7 7 6 6 7 7 7 6 6 6 6 6 5 5 5 4 4 4 4 4 5 4 4 4 3 2 3 3 2 2 2 3 3 3 2 2 3
4 5 6 6 6 6 6 6 7 7 7 7 7 7 7 7 6 7 6 5 5 5 5 5 4 4 3 3 2 3 3 3 3 3 2 3 2 3 3 3 4 4 4
3 4 5 6 6 5 5 5 6 7 7 7 7 7 7 7 7 6 6 5 4 4 5 4 5 4 5 5 5 4 4 4 4 3 3 3 2 2 2 3 3 4 3
3 3 3 5 6 6 6 5 6 7 7 7 7 7 7 6 6 6 5 4 4 4 5 4 5 5 5 6 6 6 5 5 5 4 3 3 3 3 2 3 3 3 2
3 2 3 3 4 5 6 6 5 6 6 6 5 5 5 5 5 5 5 4 4 4 5 5 5 5 5 7 8 7 5 5 5 4 4 4 4 4 4 3 3 3 3
3 3 3 2 3 5 5 5 4 4 4 4 3 4 4 5 5 4 4 4 5 5 5 5 5 6 6 7 8 7 5 5 5 4 4 4 5 6 6 5 4 5 4
2 3 3 3 4 4 5 4 4 3 3 3 3 3 4 5 5 4 4 5 5 6 6 5 5 5 4 4 6 8 8 6 4 3 3 2 4 5 5 5 5 5 4
1 2 3 4 4 4 4 3 3 3 4 4 4 3 3 3 3 4 5 5 4 5 6 5 5 5 4 4 6 8 8 7 4 3 2 1 4 4 4 6 6 5 4
1 1 2 3 3 3 3 2 3 3 3 4 4 3 4 4 3 3 4 4 5 6 6 5 4 4 3 3 3 4 5 5 5 4 2 3 5 5 5 5 5 5 5
1 1 1 2 3 3 3 2 2 3 3 3 4 4 4 4 3 3 3 4 3 4 4 3 2 2 2 2 3 4 4 4 4 4 3 3 3 4 4 5 5 5 5
0 1 1 2 2 3 3 2 2 3 3 3 4 4 4 3 3 3 3 1 2 2 2 2 2 2 2 3 3 4 3 3 4 3 3 3 3 3 3 4 3 4 4
Wind_Direction
165 163 163 159 155 150 153 156 155 148 158 171 168 164 149 171 144 140 131 129 113 92 67 17 327 346 27 8 11 6 333 315 298 311 337 216 166 154 151 133 107 99 101
167 165 166 165 161 159 162 160 160 162 175 168 172 178 167 177 150 127 129 138 128 47 177 54 329 13 16 12 4 352 328 314 309 290 343 336 55 29 105 123 143 120 102
171 169 171 172 169 166 166 171 168 167 177 172 179 182 165 171 146 140 142 141 154 173 24 78 351 348 344 3 329 321 302 302 304 316 283 282 280 51 49 57 81 88 105
172 172 174 174 172 169 169 163 160 163 166 173 189 190 183 183 177 162 148 150 166 180 149 128 44 344 3 5 295 22 311 303 310 315 271 231 163 201 79 9 48 78 85
173 174 174 172 174 172 168 163 160 163 168 181 191 205 199 196 165 147 154 163 175 191 166 152 146 305 329 333 344 359 335 328 321 308 306 310 283 240 208 225 312 16 42
171 170 168 165 172 173 170 165 161 166 172 182 187 200 213 207 169 170 174 189 174 172 170 158 153 189 268 292 310 306 308 319 315 309 311 301 287 265 233 220 199 104 23
167 166 167 168 172 174 172 164 160 168 173 181 189 191 206 205 192 214 203 220 180 158 152 169 166 199 217 250 298 271 301 298 297 299 302 296 279 256 201 194 196 153 127
166 168 169 169 174 175 171 165 162 168 175 182 188 189 195 208 206 209 213 221 212 145 144 167 167 213 254 279 304 282 263 258 287 298 304 298 296 299 224 197 182 192 208
169 169 170 172 175 175 174 171 164 168 176 183 183 185 190 212 214 189 210 214 205 175 142 164 188 208 219 253 254 270 281 304 298 303 299 292 293 285 243 221 197 195 231
165 171 171 170 172 172 170 169 165 169 175 182 188 190 191 201 206 202 200 203 207 196 151 181 194 213 224 228 244 273 260 256 255 265 297 305 311 319 293 241 213 223 215
160 167 170 168 169 169 169 169 168 169 176 182 186 194 182 190 192 201 203 200 209 203 200 209 211 224 229 228 229 253 262 271 286 287 300 299 292 314 301 326 275 222 143
157 157 162 167 170 170 171 171 173 174 179 181 182 191 185 183 188 195 197 198 199 207 214 215 216 227 224 221 227 250 258 264 278 288 310 298 292 301 305 351 308 162 161
152 152 151 154 161 168 168 170 174 176 180 182 184 185 186 188 195 197 186 190 199 208 217 216 220 230 234 219 224 237 248 263 271 284 287 286 284 289 291 270 252 215 182
149 147 141 147 156 161 158 163 170 174 179 178 183 184 190 192 192 192 187 189 196 210 215 215 224 228 234 224 220 233 236 250 260 264 274 277 267 271 273 256 242 226 192
144 139 143 150 159 162 156 163 172 172 176 177 183 186 185 185 186 190 195 194 200 214 213 214 220 228 230 229 224 229 232 230 245 235 235 253 149 116 182 253 224 239 215
140 143 146 154 162 163 166 167 170 172 171 180 187 182 180 184 192 195 195 196 202 215 216 215 223 229 239 235 222 220 245 233 238 242 228 215 173 176 185 191 203 221 229
146 152 151 160 165 168 169 171 174 174 175 182 187 183 183 188 194 204 198 201 205 213 220 221 220 222 233 233 241 238 245 258 255 254 244 259 231 183 183 188 208 230 243
154 158 163 168 177 171 166 170 177 177 179 185 192 188 189 192 193 199 202 202 204 212 220 221 223 217 223 216 219 231 231 249 253 242 229 234 230 244 211 215 213 210 225
113 144 160 180 174 169 167 171 178 177 182 189 193 190 190 194 198 203 202 204 209 216 221 219 219 222 220 217 215 216 226 234 243 235 237 235 233 231 225 219 229 233 231
110 126 141 164 164 157 156 165 177 176 188 192 192 190 189 194 200 204 203 207 214 220 224 225 224 225 225 216 214 214 232 232 234 227 224 227 231 206 206 215 221 228 238
128 130 135 144 132 131 139 156 166 185 185 178 181 189 194 198 204 202 198 201 211 219 226 230 228 226 226 212 209 208 229 249 243 233 226 219 198 200 213 217 227 230 234
121 134 131 126 123 130 143 162 177 180 172 169 180 196 206 217 212 201 208 211 216 219 222 229 236 232 219 207 206 209 220 247 261 258 244 220 174 191 213 221 238 244 252
85 118 121 122 132 144 154 183 187 170 170 170 183 197 209 223 215 206 214 220 223 228 228 225 232 231 220 209 203 206 216 228 236 254 274 238 196 203 219 224 228 239 247
69 110 124 138 143 146 155 189 170 163 167 177 182 191 210 216 217 221 220 221 226 233 233 233 231 227 221 218 197 194 210 217 227 242 241 220 224 240 246 235 232 232 240
48 136 152 148 145 142 150 165 165 162 179 189 191 206 215 213 216 221 228 227 238 238 236 245 239 237 232 252 198 196 198 208 209 211 219 224 220 228 235 234 230 231 234
251 177 165 162 157 156 158 161 185 180 189 202 207 215 222 216 212 212 236 270 246 245 224 212 217 243 202 187 178 185 187 183 168 186 224 230 232 235 249 253 245 240 243
Height
1522 1525 1528 1530 1532 1534 1535 1537 1538 1539 1540 1541 1542 1543 1544 1544 1544 1545 1544 1544 1545 1544 1544 1544 1544 1544 1544 1544 1544 1543 1543 1543 1543 1543 1542 1542 1543 1542 1542 1543 1543 1543 1543
1519 1523 1526 1529 1531 1533 1534 1536 1537 1538 1539 1540 1541 1543 1544 1544 1544 1545 1545 1544 1544 1544 1545 1544 1544 1544 1543 1543 1543 1543 1542 1542 1542 1542 1542 1542 1543 1542 1542 1542 1542 1542 1541
1515 1520 1524 1527 1529 1531 1533 1534 1536 1537 1538 1540 1541 1543 1543 1544 1544 1544 1544 1544 1544 1544 1544 1543 1544 1543 1543 1543 1543 1542 1542 1542 1542 1542 1543 1542 1542 1541 1542 1541 1541 1541 1541
1511 1516 1520 1524 1527 1529 1531 1533 1534 1536 1537 1539 1540 1541 1542 1543 1543 1544 1544 1544 1544 1544 1544 1543 1543 1543 1543 1542 1542 1542 1542 1541 1541 1541 1541 1542 1541 1541 1541 1542 1541 1541 1540
1508 1512 1517 1521 1524 1527 1529 1531 1532 1534 1536 1537 1538 1539 1541 1542 1543 1543 1543 1543 1543 1543 1543 1543 1543 1542 1542 1542 1541 1541 1541 1541 1540 1540 1540 1540 1540 1540 1540 1540 1541 1540 1540
1504 1509 1514 1518 1522 1525 1528 1529 1530 1532 1534 1536 1537 1538 1539 1541 1541 1542 1542 1542 1543 1542 1542 1542 1542 1542 1541 1541 1541 1540 1540 1540 1539 1539 1539 1539 1539 1538 1538 1538 1539 1539 1538
1501 1506 1511 1515 1519 1523 1525 1527 1528 1530 1532 1534 1535 1537 1538 1539 1540 1541 1541 1542 1542 1542 1541 1542 1541 1541 1541 1540 1540 1539 1539 1539 1538 1538 1537 1537 1537 1537 1537 1537 1537 1537 1537
1498 1503 1507 1512 1516 1519 1523 1525 1526 1528 1530 1532 1534 1535 1536 1538 1539 1539 1540 1541 1541 1541 1541 1540 1540 1540 1540 1540 1539 1538 1538 1538 1537 1537 1536 1535 1535 1535 1535 1535 1535 1535 1536
1495 1500 1505 1509 1513 1517 1520 1522 1524 1526 1528 1530 1532 1533 1535 1536 1537 1538 1539 1539 1540 1540 1539 1539 1539 1539 1539 1538 1538 1537 1537 1536 1536 1535 1534 1534 1533 1533 1533 1533 1533 1534 1533
1493 1498 1502 1507 1511 1514 1517 1520 1522 1524 1526 1528 1530 1532 1533 1534 1535 1536 1537 1538 1538 1539 1538 1538 1538 1538 1537 1537 1536 1536 1536 1535 1534 1534 1533 1532 1532 1532 1532 1532 1532 1532 1532
1490 1496 1500 1504 1509 1512 1515 1518 1520 1522 1524 1525 1528 1530 1531 1532 1533 1534 1535 1536 1536 1537 1537 1536 1536 1536 1536 1536 1535 1535 1534 1534 1533 1532 1532 1531 1531 1530 1530 1530 1530 1530 1530
1488 1493 1498 1502 1507 1510 1513 1515 1518 1520 1522 1523 1525 1527 1529 1530 1531 1532 1533 1534 1534 1535 1535 1535 1535 1535 1535 1534 1534 1533 1533 1532 1532 1531 1531 1530 1530 1529 1529 1528 1528 1528 1528
1488 1492 1496 1501 1505 1508 1511 1513 1516 1518 1520 1522 1523 1525 1526 1528 1529 1530 1531 1532 1532 1533 1533 1533 1533 1533 1533 1533 1532 1532 1531 1531 1530 1530 1529 1528 1528 1527 1527 1527 1527 1527 1527
1487 1491 1495 1499 1502 1505 1508 1511 1514 1516 1518 1519 1521 1522 1524 1525 1526 1527 1528 1529 1530 1530 1530 1531 1531 1531 1531 1531 1530 1530 1529 1529 1528 1528 1527 1527 1526 1526 1525 1525 1525 1525 1525
1487 1490 1493 1496 1500 1503 1506 1509 1511 1514 1516 1517 1518 1519 1521 1522 1523 1525 1526 1527 1527 1528 1528 1528 1528 1528 1528 1528 1528 1528 1527 1527 1526 1526 1525 1525 1525 1524 1524 1524 1524 1523 1523
1486 1489 1493 1495 1497 1500 1503 1506 1509 1511 1513 1515 1516 1517 1518 1520 1521 1522 1523 1524 1524 1525 1525 1525 1525 1525 1525 1526 1525 1525 1525 1525 1524 1524 1523 1523 1522 1522 1522 1521 1521 1521 1521
1486 1489 1491 1493 1495 1498 1500 1502 1505 1507 1509 1511 1513 1514 1516 1517 1518 1519 1520 1520 1521 1522 1522 1522 1522 1522 1522 1522 1522 1522 1522 1522 1521 1521 1520 1520 1520 1519 1519 1519 1519 1518 1518
1485 1487 1489 1493 1494 1496 1498 1500 1503 1505 1506 1509 1510 1511 1512 1514 1515 1516 1517 1517 1518 1518 1518 1519 1519 1518 1518 1518 1519 1519 1519 1518 1517 1517 1517 1517 1516 1516 1516 1516 1515 1515 1515
1484 1487 1489 1491 1492 1494 1496 1498 1500 1502 1504 1506 1508 1509 1510 1511 1512 1513 1513 1514 1515 1515 1515 1515 1515 1515 1515 1515 1515 1515 1515 1514 1514 1513 1513 1513 1513 1513 1513 1513 1512 1512 1511
1484 1486 1487 1489 1490 1491 1493 1495 1498 1500 1502 1503 1505 1506 1506 1507 1508 1509 1510 1510 1511 1511 1512 1512 1512 1512 1511 1511 1511 1511 1511 1510 1510 1510 1509 1509 1509 1509 1509 1509 1509 1508 1508
1483 1485 1486 1487 1488 1489 1491 1493 1495 1497 1499 1500 1501 1502 1503 1504 1505 1506 1506 1507 1507 1508 1508 1508 1508 1508 1508 1508 1508 1508 1507 1507 1507 1507 1506 1505 1505 1505 1506 1506 1506 1505 1505
1482 1483 1484 1485 1487 1488 1489 1491 1493 1495 1497 1498 1498 1499 1500 1501 1502 1502 1503 1503 1504 1504 1504 1504 1504 1504 1504 1504 1504 1504 1504 1504 1504 1503 1503 1502 1502 1502 1502 1502 1502 1502 1503
1481 1482 1483 1484 1485 1487 1487 1488 1491 1493 1494 1494 1495 1496 1497 1497 1498 1499 1499 1500 1500 1500 1500 1500 1500 1500 1500 1500 1500 1500 1500 1500 1499 1499 1499 1499 1499 1499 1499 1499 1499 1499 1498
1480 1480 1481 1482 1483 1485 1486 1488 1490 1490 1491 1491 1492 1493 1494 1495 1495 1496 1496 1496 1496 1496 1496 1496 1496 1496 1496 1496 1495 1495 1495 1495 1495 1495 1495 1494 1494 1495 1495 1495 1495 1495 1495
1478 1479 1480 1481 1482 1483 1484 1486 1487 1488 1488 1489 1490 1491 1492 1492 1492 1492 1493 1493 1493 1493 1493 1493 1493 1492 1492 1491 1492 1492 1491 1491 1491 1491 1491 1490 1490 1490 1491 1491 1490 1490 1490
1477 1477 1478 1479 1480 1481 1482 1483 1485 1485 1486 1487 1487 1488 1489 1489 1489 1489 1489 1489 1490 1490 1489 1489 1489 1488 1488 1487 1487 1488 1488 1487 1487 1487 1487 1487 1486 1486 1486 1487 1486 1486 1486